Location: Peebles
(55.6412°N, 3.1714°W)
Time: 17:47:58
(UTC+01:00)

USA 238 DEB - Pass Details

Date: 19 January 2022
Orbit: 969 x 1243 km, 63.4° (Epoch: 04 May)

Event Time Altitude Azimuth Distance (km) Brightness Sun altitude
Rises 17:07:20 0° 193° (SSW) 3,684 7.2 -6.5°
Reaches altitude 10° 17:10:01 10° 186° (S) 2,762 6.3 -6.8°
Maximum altitude 17:15:53 37° 121° (ESE) 1,544 4.3 -7.6°
Drops below altitude 10° 17:22:05 10° 57° (ENE) 2,929 5.3 -8.4°
Enters shadow 17:22:14 - 56° (NE) 2,981 5.4 -8.4°
